Time,TemperatureF,DewpointF,PressureIn,WindDirection,WindDirectionDegrees,WindSpeedMPH,WindSpeedGustMPH,Humidity,HourlyPrecipIn,Conditions,Clouds,dailyrainin,SolarRadiationWatts/m^2,SoftwareType,DateUTC
2013-02-28 00:00:00,42.2,40.0,29.63,WNW,288,0.0,0.0,91,0.00,,,0.00,0,weatherlink.com 1.10,2013-02-28 05:00:00,
2013-02-28 00:15:00,42.1,40.0,29.63,WNW,288,0.0,0.0,91,0.00,,,0.00,0,weatherlink.com 1.10,2013-02-28 05:15:00,
2013-02-28 00:30:00,42.1,40.0,29.63,WNW,288,0.0,0.0,91,0.00,,,0.00,0,weatherlink.com 1.10,2013-02-28 05:30:00,
2013-02-28 00:45:00,42.0,40.0,29.62,WNW,288,0.0,0.0,91,0.00,,,0.00,0,weatherlink.com 1.10,2013-02-28 05:45:00,
2013-02-28 01:00:00,41.8,39.0,29.62,WNW,288,0.0,0.0,91,0.00,,,0.00,0,weatherlink.com 1.10,2013-02-28 06:00:00,
2013-02-28 01:15:00,41.6,39.0,29.62,WNW,288,0.0,0.0,91,0.00,,,0.00,0,weatherlink.com 1.10,2013-02-28 06:15:00,
2013-02-28 01:30:00,41.5,39.0,29.62,WNW,288,0.0,0.0,92,0.00,,,0.00,0,weatherlink.com 1.10,2013-02-28 06:30:00,
2013-02-28 01:45:00,41.6,40.0,29.62,WNW,288,0.0,0.0,92,0.00,,,0.00,0,weatherlink.com 1.10,2013-02-28 06:45:00,
2013-02-28 02:00:00,41.5,39.0,29.61,WNW,288,0.0,0.0,92,0.00,,,0.00,0,weatherlink.com 1.10,2013-02-28 07:00:00,
2013-02-28 02:16:00,41.4,39.0,29.62,WNW,288,0.0,0.0,92,0.00,,,0.00,0,weatherlink.com 1.10,2013-02-28 07:16:00,
2013-02-28 02:31:00,41.5,39.0,29.62,WNW,288,0.0,0.0,92,0.00,,,0.00,0,weatherlink.com 1.10,2013-02-28 07:31:00,
2013-02-28 02:46:00,41.5,39.0,29.62,WNW,288,0.0,0.0,91,0.00,,,0.00,0,weatherlink.com 1.10,2013-02-28 07:46:00,
2013-02-28 03:01:00,41.7,39.0,29.61,WNW,288,0.0,0.0,90,0.00,,,0.00,0,weatherlink.com 1.10,2013-02-28 08:01:00,
2013-02-28 03:16:00,41.8,39.0,29.62,WNW,288,0.0,0.0,90,0.00,,,0.00,0,weatherlink.com 1.10,2013-02-28 08:16:00,
2013-02-28 03:31:00,42.0,39.0,29.61,WNW,288,0.0,0.0,88,0.00,,,0.00,0,weatherlink.com 1.10,2013-02-28 08:31:00,
2013-02-28 03:46:00,42.3,39.0,29.61,WNW,288,0.0,0.0,87,0.00,,,0.00,0,weatherlink.com 1.10,2013-02-28 08:46:00,
2013-02-28 04:01:00,42.1,39.0,29.61,WNW,288,0.0,0.0,88,0.00,,,0.00,0,weatherlink.com 1.10,2013-02-28 09:01:00,
2013-02-28 04:16:00,41.9,39.0,29.61,WNW,288,0.0,0.0,88,0.00,,,0.00,0,weatherlink.com 1.10,2013-02-28 09:16:00,
2013-02-28 04:31:00,42.2,38.0,29.60,WNW,288,0.0,2.0,86,0.00,,,0.00,0,weatherlink.com 1.10,2013-02-28 09:31:00,
2013-02-28 04:46:00,42.5,38.0,29.60,WNW,288,0.0,2.0,84,0.00,,,0.00,0,weatherlink.com 1.10,2013-02-28 09:46:00,
2013-02-28 05:01:00,42.8,38.0,29.61,WNW,288,0.0,4.0,83,0.00,,,0.00,0,weatherlink.com 1.10,2013-02-28 10:01:00,
2013-02-28 05:16:00,42.8,38.0,29.61,WNW,288,0.0,1.0,83,0.00,,,0.00,0,weatherlink.com 1.10,2013-02-28 10:16:00,
2013-02-28 05:31:00,42.7,38.0,29.61,WNW,288,0.0,3.0,82,0.00,,,0.00,0,weatherlink.com 1.10,2013-02-28 10:31:00,
2013-02-28 05:46:00,42.8,37.0,29.62,WNW,288,0.0,3.0,81,0.00,,,0.00,0,weatherlink.com 1.10,2013-02-28 10:46:00,
2013-02-28 06:01:00,43.4,37.0,29.62,WNW,288,2.0,5.0,79,0.00,,,0.00,0,weatherlink.com 1.10,2013-02-28 11:01:00,
2013-02-28 06:16:00,43.6,37.0,29.62,WNW,288,1.0,4.0,78,0.00,,,0.00,0,weatherlink.com 1.10,2013-02-28 11:16:00,
2013-02-28 06:31:00,43.6,37.0,29.62,WNW,288,0.0,3.0,78,0.00,,,0.00,0,weatherlink.com 1.10,2013-02-28 11:31:00,
2013-02-28 06:46:00,43.4,37.0,29.62,WNW,288,0.0,0.0,79,0.00,,,0.00,5,weatherlink.com 1.10,2013-02-28 11:46:00,
2013-02-28 07:01:00,42.9,37.0,29.62,WNW,288,0.0,3.0,81,0.00,,,0.00,9,weatherlink.com 1.10,2013-02-28 12:01:00,
2013-02-28 07:16:00,42.7,38.0,29.62,WNW,288,0.0,4.0,84,0.00,,,0.00,21,weatherlink.com 1.10,2013-02-28 12:16:00,
2013-02-28 07:31:00,42.4,38.0,29.62,WNW,288,0.0,1.0,85,0.00,,,0.00,42,weatherlink.com 1.10,2013-02-28 12:31:00,
2013-02-28 07:46:00,42.3,39.0,29.63,WNW,288,0.0,2.0,87,0.00,,,0.00,35,weatherlink.com 1.10,2013-02-28 12:46:00,
2013-02-28 08:01:00,42.2,39.0,29.63,WNW,288,0.0,3.0,88,0.00,,,0.00,44,weatherlink.com 1.10,2013-02-28 13:01:00,
2013-02-28 08:16:00,42.2,39.0,29.64,WNW,288,0.0,4.0,89,0.00,,,0.00,54,weatherlink.com 1.10,2013-02-28 13:16:00,
2013-02-28 08:31:00,42.2,39.0,29.64,WNW,288,0.0,3.0,89,0.00,,,0.00,90,weatherlink.com 1.10,2013-02-28 13:31:00,
2013-02-28 08:46:00,42.5,40.0,29.63,WNW,288,0.0,2.0,90,0.01,,,0.01,113,weatherlink.com 1.10,2013-02-28 13:46:00,
2013-02-28 09:01:00,42.9,40.0,29.63,WNW,288,4.0,5.0,89,0.01,,,0.01,163,weatherlink.com 1.10,2013-02-28 14:01:00,
2013-02-28 09:16:00,43.8,40.0,29.62,WNW,282,3.0,7.0,86,0.01,,,0.01,450,weatherlink.com 1.10,2013-02-28 14:16:00,
2013-02-28 09:31:00,44.7,39.0,29.62,WNW,297,5.0,11.0,81,0.01,,,0.01,279,weatherlink.com 1.10,2013-02-28 14:31:00,
2013-02-28 09:46:00,45.1,39.0,29.61,WNW,291,6.0,9.0,78,0.00,,,0.01,599,weatherlink.com 1.10,2013-02-28 14:46:00,
2013-02-28 10:01:00,45.9,39.0,29.61,SSW,195,1.0,9.0,77,0.00,,,0.01,473,weatherlink.com 1.10,2013-02-28 15:01:00,
2013-02-28 10:16:00,45.9,39.0,29.61,WNW,297,6.0,10.0,77,0.00,,,0.01,246,weatherlink.com 1.10,2013-02-28 15:16:00,
2013-02-28 10:31:00,45.8,38.0,29.60,WNW,292,1.0,9.0,75,0.00,,,0.01,234,weatherlink.com 1.10,2013-02-28 15:31:00,
2013-02-28 10:46:00,46.2,38.0,29.60,WNW,294,5.0,10.0,73,0.00,,,0.01,264,weatherlink.com 1.10,2013-02-28 15:46:00,
2013-02-28 11:01:00,46.1,37.0,29.60,WNW,301,5.0,11.0,71,0.00,,,0.01,315,weatherlink.com 1.10,2013-02-28 16:01:00,
2013-02-28 11:17:00,46.5,37.0,29.59,West,275,4.0,10.0,70,0.00,,,0.01,413,weatherlink.com 1.10,2013-02-28 16:17:00,
2013-02-28 11:32:00,47.5,37.0,29.59,West,268,5.0,12.0,67,0.00,,,0.01,281,weatherlink.com 1.10,2013-02-28 16:32:00,
2013-02-28 11:47:00,47.3,37.0,29.58,WNW,294,2.0,10.0,68,0.00,,,0.01,322,weatherlink.com 1.10,2013-02-28 16:47:00,
2013-02-28 12:02:00,47.8,37.0,29.58,South,190,0.0,7.0,66,0.00,,,0.01,541,weatherlink.com 1.10,2013-02-28 17:02:00,
2013-02-28 12:17:00,48.2,36.0,29.57,WSW,257,3.0,10.0,64,0.00,,,0.01,192,weatherlink.com 1.10,2013-02-28 17:17:00,
2013-02-28 12:32:00,47.8,36.0,29.56,South,170,1.0,8.0,64,0.00,,,0.01,257,weatherlink.com 1.10,2013-02-28 17:32:00,
2013-02-28 12:47:00,48.0,36.0,29.56,WNW,291,5.0,10.0,63,0.00,,,0.01,285,weatherlink.com 1.10,2013-02-28 17:47:00,
2013-02-28 13:04:00,47.7,35.0,29.56,West,272,5.0,10.0,62,0.00,,,0.01,186,weatherlink.com 1.10,2013-02-28 18:04:00,
2013-02-28 13:17:00,47.8,36.0,29.56,West,267,1.0,9.0,64,0.00,,,0.01,227,weatherlink.com 1.10,2013-02-28 18:17:00,
2013-02-28 13:32:00,47.5,36.0,29.56,WNW,296,5.0,9.0,64,0.00,,,0.01,257,weatherlink.com 1.10,2013-02-28 18:32:00,
2013-02-28 13:47:00,47.4,35.0,29.56,West,268,6.0,11.0,63,0.00,,,0.01,237,weatherlink.com 1.10,2013-02-28 18:47:00,
2013-02-28 14:02:00,47.6,34.0,29.56,West,281,5.0,9.0,60,0.00,,,0.01,197,weatherlink.com 1.10,2013-02-28 19:02:00,
2013-02-28 14:17:00,47.4,34.0,29.55,West,279,2.0,13.0,60,0.00,,,0.01,202,weatherlink.com 1.10,2013-02-28 19:17:00,
2013-02-28 14:32:00,47.5,34.0,29.56,WNW,282,4.0,9.0,61,0.00,,,0.01,190,weatherlink.com 1.10,2013-02-28 19:32:00,
2013-02-28 14:47:00,47.2,35.0,29.56,WSW,248,1.0,9.0,62,0.00,,,0.01,104,weatherlink.com 1.10,2013-02-28 19:47:00,
2013-02-28 15:02:00,46.1,34.0,29.56,West,281,4.0,11.0,63,0.00,,,0.01,95,weatherlink.com 1.10,2013-02-28 20:02:00,
2013-02-28 15:17:00,45.8,34.0,29.56,WNW,288,5.0,11.0,64,0.00,,,0.01,86,weatherlink.com 1.10,2013-02-28 20:17:00,
2013-02-28 15:32:00,45.6,34.0,29.56,West,273,3.0,13.0,64,0.00,,,0.01,77,weatherlink.com 1.10,2013-02-28 20:32:00,
2013-02-28 15:47:00,45.6,33.0,29.56,WNW,300,7.0,9.0,61,0.00,,,0.01,76,weatherlink.com 1.10,2013-02-28 20:47:00,
2013-02-28 16:02:00,45.7,32.0,29.56,West,275,6.0,12.0,60,0.00,,,0.01,84,weatherlink.com 1.10,2013-02-28 21:02:00,
2013-02-28 16:17:00,45.5,32.0,29.56,West,277,5.0,8.0,60,0.00,,,0.01,62,weatherlink.com 1.10,2013-02-28 21:17:00,
2013-02-28 16:32:00,45.5,33.0,29.55,West,274,5.0,9.0,61,0.00,,,0.01,67,weatherlink.com 1.10,2013-02-28 21:32:00,
2013-02-28 16:47:00,45.5,31.0,29.56,WNW,300,6.0,9.0,58,0.00,,,0.01,60,weatherlink.com 1.10,2013-02-28 21:47:00,
2013-02-28 17:02:00,45.2,31.0,29.56,WNW,284,4.0,10.0,59,0.00,,,0.01,42,weatherlink.com 1.10,2013-02-28 22:02:00,
2013-02-28 17:17:00,44.9,31.0,29.57,WNW,289,4.0,8.0,59,0.00,,,0.01,19,weatherlink.com 1.10,2013-02-28 22:17:00,
2013-02-28 17:32:00,44.6,31.0,29.57,West,261,2.0,6.0,60,0.00,,,0.01,12,weatherlink.com 1.10,2013-02-28 22:32:00,
2013-02-28 17:47:00,44.3,31.0,29.57,WNW,289,2.0,8.0,60,0.00,,,0.01,0,weatherlink.com 1.10,2013-02-28 22:47:00,
2013-02-28 18:02:00,44.0,31.0,29.58,WNW,291,1.0,8.0,61,0.00,,,0.01,0,weatherlink.com 1.10,2013-02-28 23:02:00,
2013-02-28 18:17:00,43.5,31.0,29.58,WNW,302,3.0,6.0,61,0.00,,,0.01,0,weatherlink.com 1.10,2013-02-28 23:17:00,
2013-02-28 18:32:00,43.2,30.0,29.59,West,277,2.0,6.0,61,0.00,,,0.01,0,weatherlink.com 1.10,2013-02-28 23:32:00,
2013-02-28 18:47:00,42.7,30.0,29.59,West,277,0.0,3.0,62,0.00,,,0.01,0,weatherlink.com 1.10,2013-02-28 23:47:00,
2013-02-28 19:02:00,42.0,31.0,29.59,West,277,1.0,2.0,64,0.00,,,0.01,0,weatherlink.com 1.10,2013-03-01 00:02:00,
2013-02-28 19:17:00,41.7,30.0,29.60,West,265,1.0,6.0,64,0.00,,,0.01,0,weatherlink.com 1.10,2013-03-01 00:17:00,
2013-02-28 19:32:00,41.4,30.0,29.61,West,263,1.0,5.0,64,0.00,,,0.01,0,weatherlink.com 1.10,2013-03-01 00:32:00,
2013-02-28 19:47:00,41.6,31.0,29.61,West,279,0.0,6.0,65,0.00,,,0.01,0,weatherlink.com 1.10,2013-03-01 00:47:00,
2013-02-28 20:02:00,41.6,31.0,29.61,NNW,327,3.0,5.0,65,0.00,,,0.01,0,weatherlink.com 1.10,2013-03-01 01:02:00,
2013-02-28 20:17:00,42.0,31.0,29.61,West,265,2.0,7.0,64,0.00,,,0.01,0,weatherlink.com 1.10,2013-03-01 01:17:00,
2013-02-28 20:32:00,42.2,31.0,29.61,WNW,289,5.0,11.0,65,0.00,,,0.01,0,weatherlink.com 1.10,2013-03-01 01:32:00,
2013-02-28 20:47:00,42.2,31.0,29.62,WNW,290,4.0,12.0,66,0.00,,,0.01,0,weatherlink.com 1.10,2013-03-01 01:47:00,
2013-02-28 21:02:00,41.9,32.0,29.62,West,269,2.0,10.0,67,0.00,,,0.01,0,weatherlink.com 1.10,2013-03-01 02:02:00,
2013-02-28 21:17:00,41.6,32.0,29.62,WNW,297,2.0,9.0,68,0.00,,,0.01,0,weatherlink.com 1.10,2013-03-01 02:17:00,
2013-02-28 21:32:00,41.3,31.0,29.63,NW,312,3.0,13.0,68,0.00,,,0.01,0,weatherlink.com 1.10,2013-03-01 02:32:00,
2013-02-28 21:47:00,40.8,32.0,29.63,NW,320,7.0,13.0,70,0.00,,,0.01,0,weatherlink.com 1.10,2013-03-01 02:47:00,
2013-02-28 22:02:00,40.2,31.0,29.63,WNW,287,2.0,9.0,71,0.00,,,0.01,0,weatherlink.com 1.10,2013-03-01 03:02:00,
2013-02-28 22:17:00,39.7,32.0,29.63,West,273,1.0,10.0,73,0.00,,,0.01,0,weatherlink.com 1.10,2013-03-01 03:17:00,
2013-02-28 22:32:00,39.2,32.0,29.62,WNW,286,4.0,10.0,76,0.00,,,0.01,0,weatherlink.com 1.10,2013-03-01 03:32:00,
2013-02-28 22:47:00,38.8,33.0,29.63,West,267,7.0,10.0,79,0.00,,,0.01,0,weatherlink.com 1.10,2013-03-01 03:47:00,
2013-02-28 23:03:00,38.3,33.0,29.63,SSW,197,3.0,11.0,80,0.00,,,0.01,0,weatherlink.com 1.10,2013-03-01 04:03:00,
2013-02-28 23:18:00,37.9,33.0,29.63,West,273,6.0,8.0,81,0.00,,,0.01,0,weatherlink.com 1.10,2013-03-01 04:18:00,
2013-02-28 23:33:00,37.6,33.0,29.62,West,271,6.0,9.0,82,0.00,,,0.01,0,weatherlink.com 1.10,2013-03-01 04:33:00,
2013-02-28 23:48:00,37.4,33.0,29.62,West,270,3.0,10.0,83,0.00,,,0.01,0,weatherlink.com 1.10,2013-03-01 04:48:00,